Last 24 Hours

Thomas Mountain

10 Minute Data | America/Los_Angeles
as of 5/5/26 3:37 AM PDT
Date & Time Temp (°F) Dew Pt (°F) RH (%) Wind Spd (mph) Wind Dir (°) Wind Gust (mph) Wind Gst Dir (°) Daily Max Temp (°F) Daily Min Temp (°F)
5/5/26 - 0330 37.9 37.9 100 6.7 WNW | 289 10.6 W | 273 39.2 37.9
5/5/26 - 0320 37.9 37.8 100 7.7 W | 272 13.1 WSW | 254 39.2 37.9
5/5/26 - 0310 38.0 38.0 100 9.2 W | 260 13.7 WSW | 239 39.2 37.9
5/5/26 - 0300 38.1 38.1 100 9.3 W | 269 16.3 W | 274 39.2 37.9
5/5/26 - 0250 38.2 38.0 99 9.8 W | 268 16.1 WNW | 293 39.2 37.9
5/5/26 - 0240 38.5 37.6 97 11.4 WSW | 257 18.6 WSW | 254 39.2 37.9
5/5/26 - 0230 38.4 38.3 100 10.2 W | 279 14.2 WNW | 284 39.0 37.9
5/5/26 - 0220 38.7 38.7 100 10.4 W | 274 15.0 WSW | 256 39.0 37.9
5/5/26 - 0210 38.4 38.4 100 9.7 WNW | 297 15.0 WNW | 288 38.8 37.9
5/5/26 - 0200 38.0 38.0 100 12.0 W | 280 16.4 W | 271 38.6 37.9
5/5/26 - 0150 37.9 37.8 100 13.6 W | 270 18.3 W | 264 38.6 37.9
5/5/26 - 0140 37.9 37.9 100 12.0 W | 261 20.4 WSW | 258 38.6 37.9
5/5/26 - 0130 38.1 38.1 100 11.8 WSW | 252 18.0 W | 263 38.6 38.0
5/5/26 - 0120 38.4 38.4 100 11.5 WSW | 257 16.2 WSW | 251 38.6 38.2
5/5/26 - 0110 38.6 38.5 100 11.6 W | 263 18.6 W | 270 38.6 38.5
5/5/26 - 0100 38.5 38.5 100 11.6 W | 274 18.8 W | 276 47.6 37.9
5/5/26 - 0050 38.4 38.3 100 8.5 WNW | 283 13.4 WNW | 294 47.6 37.9
5/5/26 - 0040 38.4 38.3 99 9.4 W | 274 17.9 W | 277 47.6 37.9
5/5/26 - 0030 38.9 38.6 99 5.4 W | 271 9.5 WSW | 258 47.6 37.9
5/5/26 - 0020 38.9 38.8 100 6.1 NW | 320 10.7 NNW | 339 47.6 37.9
5/5/26 - 0010 38.7 38.7 100 4.0 WNW | 289 7.6 WNW | 298 47.6 37.9
5/5/26 - 0000 39.2 39.1 100 6.6 NNW | 340 11.8 NNW | 348 47.6 37.9
5/4/26 - 2350 39.0 39.0 100 7.1 N | 349 12.9 NNW | 340 47.6 37.9
5/4/26 - 2340 39.1 39.0 100 6.4 NNW | 339 11.5 NNW | 344 47.6 37.9
5/4/26 - 2330 38.9 38.8 100 6.2 NNW | 327 13.3 N | 7 47.6 37.9
5/4/26 - 2320 38.9 38.8 100 4.0 WNW | 294 8.5 N | 1 47.6 37.9
5/4/26 - 2310 38.7 38.7 100 7.8 NNE | 15 12.7 NNE | 18 47.6 37.9
5/4/26 - 2300 38.2 38.1 100 5.2 WNW | 292 9.0 WNW | 299 47.6 37.9
5/4/26 - 2250 38.2 38.2 100 5.7 WNW | 290 9.9 W | 264 47.6 37.9
5/4/26 - 2240 38.3 38.3 100 6.9 WNW | 298 11.8 NW | 317 47.6 37.9
5/4/26 - 2230 38.2 38.2 100 7.8 WNW | 287 15.0 W | 270 47.6 37.9
5/4/26 - 2220 38.3 38.3 100 8.3 W | 280 13.3 WNW | 284 47.6 37.9
5/4/26 - 2210 39.0 39.0 100 7.9 W | 265 15.1 WNW | 290 47.6 37.9
5/4/26 - 2200 39.1 39.0 100 7.4 W | 276 14.2 W | 263 47.6 37.9
5/4/26 - 2150 39.2 39.2 100 9.1 W | 268 19.4 WNW | 290 47.6 37.9
5/4/26 - 2140 39.5 39.5 100 6.4 W | 265 11.1 WSW | 256 47.6 37.9
5/4/26 - 2130 39.6 39.6 100 8.8 W | 268 18.8 WSW | 248 47.6 37.9
5/4/26 - 2120 39.7 39.7 100 9.2 W | 262 19.1 W | 272 47.6 37.9
5/4/26 - 2110 39.8 39.8 100 7.3 W | 280 14.1 WSW | 258 47.6 37.9
5/4/26 - 2100 40.0 40.0 100 7.3 W | 266 13.2 WSW | 254 47.6 37.9
5/4/26 - 2050 40.0 40.0 100 7.8 W | 276 19.6 WNW | 283 47.6 37.9
5/4/26 - 2040 40.1 40.1 100 8.2 W | 277 16.5 W | 267 47.6 37.9
5/4/26 - 2030 40.1 40.1 100 10.8 WNW | 282 19.4 W | 259 47.6 37.9
5/4/26 - 2020 40.3 40.2 100 10.1 W | 273 18.0 WNW | 282 47.6 37.9
5/4/26 - 2010 40.4 40.3 100 9.7 W | 271 19.4 WNW | 286 47.6 37.9
5/4/26 - 2000 40.6 40.4 99 10.4 W | 262 19.5 W | 261 47.6 37.9
5/4/26 - 1950 40.9 40.5 98 13.8 W | 260 24.0 WSW | 258 47.6 37.9
5/4/26 - 1940 41.2 40.6 98 12.8 WSW | 256 25.9 WSW | 256 47.6 37.9
5/4/26 - 1930 41.3 40.6 98 11.4 W | 260 19.5 WSW | 252 47.6 37.9
5/4/26 - 1920 41.3 40.8 98 12.0 WSW | 257 25.0 WSW | 252 47.6 37.9
5/4/26 - 1910 41.4 40.8 98 11.8 WSW | 254 18.0 WSW | 249 47.6 37.9
5/4/26 - 1900 41.9 40.7 96 14.2 WSW | 249 21.2 WSW | 254 47.6 37.9
5/4/26 - 1850 42.5 40.6 93 13.5 WSW | 254 25.6 W | 261 47.6 37.9
5/4/26 - 1840 43.0 40.5 91 15.4 WSW | 253 24.1 WSW | 253 47.6 37.9
5/4/26 - 1830 43.4 40.3 89 12.3 WSW | 257 22.0 WSW | 250 47.6 37.9
5/4/26 - 1820 43.6 40.4 88 13.0 WSW | 258 23.4 W | 267 47.6 37.9
5/4/26 - 1810 43.7 40.2 87 15.2 WSW | 254 24.8 W | 265 47.6 37.9
5/4/26 - 1800 44.2 39.3 83 12.8 W | 260 23.0 WSW | 252 47.6 37.9
5/4/26 - 1750 44.5 36.9 74 10.6 W | 278 19.4 WNW | 282 47.6 37.9
5/4/26 - 1740 44.7 36.6 73 12.8 W | 277 22.7 WNW | 293 47.6 37.9
5/4/26 - 1730 44.8 36.6 73 11.7 W | 275 23.0 WSW | 250 47.6 37.9
5/4/26 - 1720 44.9 36.8 73 13.3 W | 279 25.8 W | 262 47.6 37.9
5/4/26 - 1710 45.0 36.9 73 12.3 W | 276 23.8 W | 271 47.6 37.9
5/4/26 - 1700 45.0 36.6 72 13.2 W | 275 22.5 WNW | 285 47.6 37.9
5/4/26 - 1650 44.8 36.8 73 13.8 W | 275 23.2 WNW | 282 47.6 37.9
5/4/26 - 1640 44.9 36.9 73 11.0 W | 272 21.0 WNW | 289 47.6 37.9
5/4/26 - 1630 44.9 37.0 74 11.9 W | 270 23.2 W | 269 47.6 37.9
5/4/26 - 1620 44.8 37.1 74 14.6 W | 271 23.4 W | 280 47.6 37.9
5/4/26 - 1610 45.2 37.4 74 13.2 W | 276 21.0 WNW | 286 47.6 37.9
5/4/26 - 1600 45.9 37.6 73 15.4 W | 260 28.1 WSW | 254 47.6 37.9
5/4/26 - 1550 45.7 38.0 74 13.9 WSW | 258 23.4 W | 271 47.6 37.9
5/4/26 - 1540 45.6 37.7 74 13.2 W | 261 23.5 W | 260 47.6 37.9
5/4/26 - 1530 46.4 37.6 71 12.4 WSW | 258 22.5 W | 266 47.6 37.9
5/4/26 - 1520 46.2 38.0 73 12.9 WNW | 286 21.8 W | 277 47.6 37.9
5/4/26 - 1510 45.7 38.1 74 10.4 W | 273 18.3 WNW | 282 47.6 37.9
5/4/26 - 1500 46.2 37.7 72 10.6 W | 275 20.1 W | 281 47.6 37.9
5/4/26 - 1450 46.6 37.0 69 11.7 W | 274 20.4 WSW | 238 47.6 37.9
5/4/26 - 1440 47.1 36.4 66 12.5 WSW | 253 21.7 WSW | 253 47.6 37.9
5/4/26 - 1430 46.4 36.4 68 14.4 WSW | 254 23.0 WSW | 250 46.9 37.9
5/4/26 - 1420 46.2 36.6 69 15.7 WSW | 244 26.4 WSW | 238 46.8 37.9
5/4/26 - 1410 45.2 36.4 71 11.6 W | 273 18.3 WNW | 291 46.2 37.9
5/4/26 - 1400 44.5 36.1 72 13.3 W | 274 20.1 WNW | 288 45.7 37.9
5/4/26 - 1350 45.3 35.9 70 10.8 W | 264 18.2 WSW | 253 45.7 37.9
5/4/26 - 1340 45.5 35.6 68 11.7 W | 265 20.9 SW | 236 45.7 37.9
5/4/26 - 1330 45.4 35.8 69 9.8 W | 264 17.5 W | 272 45.7 37.9
5/4/26 - 1320 45.2 35.5 69 9.7 W | 263 19.9 WSW | 248 45.6 37.9
5/4/26 - 1310 44.7 35.6 70 10.0 WSW | 254 20.3 WSW | 253 45.2 37.9
5/4/26 - 1300 43.8 35.8 73 10.4 W | 270 19.6 WSW | 258 44.6 37.9
5/4/26 - 1250 43.5 35.9 74 10.2 W | 275 17.8 WNW | 282 44.6 37.9
5/4/26 - 1240 43.5 36.0 75 7.8 W | 276 14.1 WSW | 255 44.6 37.9
5/4/26 - 1230 43.0 36.4 77 11.3 WNW | 285 18.5 W | 278 44.6 37.9
5/4/26 - 1220 43.3 36.4 77 9.0 W | 263 17.2 WNW | 285 44.6 37.9
5/4/26 - 1210 43.2 36.4 77 12.8 WSW | 248 19.6 WSW | 250 44.6 37.9
5/4/26 - 1200 43.3 36.3 76 11.4 WSW | 250 19.6 WSW | 258 44.6 37.9
5/4/26 - 1150 43.2 36.1 76 12.4 WSW | 250 20.2 WSW | 244 44.6 37.9
5/4/26 - 1140 43.6 36.0 74 10.7 WSW | 255 19.6 WSW | 245 44.6 37.9
5/4/26 - 1130 43.6 35.2 72 14.6 WSW | 254 23.8 WSW | 258 44.3 37.9
5/4/26 - 1120 43.5 35.1 72 11.7 W | 262 20.7 WSW | 245 44.1 37.9
5/4/26 - 1110 42.7 34.7 73 13.0 WSW | 243 24.0 WSW | 252 43.4 37.9
5/4/26 - 1100 42.5 35.9 77 11.7 WSW | 252 19.3 W | 268 43.1 37.9
5/4/26 - 1050 42.1 36.0 79 12.8 WSW | 245 19.6 WSW | 257 43.0 37.9
5/4/26 - 1040 41.8 36.1 80 13.3 WSW | 244 19.4 SW | 234 43.0 37.9
5/4/26 - 1030 41.7 36.1 80 11.5 WSW | 246 18.0 WSW | 256 43.0 37.9
5/4/26 - 1020 41.7 36.3 81 13.7 WSW | 247 19.4 WSW | 256 43.0 37.9
5/4/26 - 1010 41.1 36.3 83 13.2 WSW | 246 21.0 WSW | 255 43.0 37.9
5/4/26 - 1000 41.8 36.8 82 13.2 WSW | 250 20.1 SSW | 211 43.0 37.9
5/4/26 - 0950 42.0 36.0 79 9.2 WSW | 257 16.1 W | 269 43.0 37.9
5/4/26 - 0940 41.0 35.5 80 12.8 WSW | 255 21.2 W | 261 41.3 37.9
5/4/26 - 0930 40.9 35.6 82 10.6 W | 264 18.0 W | 281 41.2 37.9
5/4/26 - 0920 40.0 36.1 86 10.0 W | 259 18.6 W | 266 40.5 37.9
5/4/26 - 0910 39.7 35.5 84 9.7 W | 264 17.5 W | 260 40.4 37.9
5/4/26 - 0900 39.1 35.6 87 12.3 WSW | 252 20.2 W | 272 40.4 37.9
5/4/26 - 0850 39.1 36.2 89 9.9 WSW | 254 17.3 WSW | 242 40.4 37.9
5/4/26 - 0840 38.9 35.9 89 8.6 W | 264 16.1 W | 261 40.4 37.9
5/4/26 - 0830 38.9 36.0 89 8.2 W | 276 16.3 W | 266 40.4 37.9
5/4/26 - 0820 39.0 36.5 90 5.3 W | 278 9.0 W | 261 40.4 37.9
5/4/26 - 0810 39.0 37.0 92 4.8 W | 275 8.8 WSW | 247 40.4 37.9
5/4/26 - 0800 39.1 37.1 92 3.5 WNW | 292 7.6 NW | 324 40.4 37.9
5/4/26 - 0750 38.9 37.2 93 3.1 WNW | 299 7.5 WNW | 284 40.4 37.9
5/4/26 - 0740 38.6 37.0 94 3.5 WNW | 301 6.9 WNW | 297 40.4 37.9
5/4/26 - 0730 38.3 37.0 95 2.7 WNW | 303 7.2 NW | 317 40.4 37.9
5/4/26 - 0720 38.1 37.3 97 3.5 NW | 304 10.8 N | 10 40.4 37.9
5/4/26 - 0710 38.0 37.3 97 7.2 WNW | 293 15.2 W | 280 40.4 37.9
5/4/26 - 0700 38.0 37.5 98 9.2 W | 275 17.0 WNW | 287 40.4 37.9
5/4/26 - 0650 38.0 37.5 98 9.2 W | 276 14.5 WNW | 282 40.4 37.9
5/4/26 - 0640 38.1 37.7 98 9.5 W | 275 16.4 W | 275 40.4 37.9
5/4/26 - 0630 38.1 37.7 98 9.9 W | 274 16.4 W | 270 40.4 38.0
5/4/26 - 0620 38.2 37.6 98 10.2 W | 275 15.3 W | 270 40.4 38.0
5/4/26 - 0610 38.2 37.5 97 10.0 W | 273 21.8 WNW | 286 40.4 38.0
5/4/26 - 0600 38.2 37.4 97 10.8 W | 276 22.2 W | 278 40.4 38.0
5/4/26 - 0550 38.1 37.5 98 9.5 W | 272 16.7 W | 276 40.4 38.0
5/4/26 - 0540 38.0 37.3 97 9.7 W | 270 17.8 W | 275 40.4 38.0
5/4/26 - 0530 38.0 37.2 97 13.3 W | 275 21.0 W | 278 40.4 38.0
5/4/26 - 0520 38.2 37.4 97 11.0 W | 273 18.1 W | 279 40.4 38.0
5/4/26 - 0510 38.3 37.4 96 10.3 W | 273 19.7 W | 272 40.4 38.1
5/4/26 - 0500 38.3 37.0 95 9.0 W | 275 14.6 W | 275 40.4 38.2
5/4/26 - 0450 38.3 36.8 94 10.3 W | 279 15.4 WNW | 291 40.4 38.2
5/4/26 - 0440 38.5 36.5 92 10.2 W | 277 17.0 W | 260 40.4 38.4
5/4/26 - 0430 38.5 36.1 91 10.6 W | 280 18.3 WNW | 286 40.4 38.4
5/4/26 - 0420 38.4 36.2 92 9.4 W | 279 15.5 W | 268 40.4 38.4
5/4/26 - 0410 38.4 36.2 91 11.3 W | 281 17.6 WSW | 254 40.4 38.4
5/4/26 - 0400 38.6 35.6 89 12.4 W | 276 19.1 W | 268 40.4 38.5
5/4/26 - 0350 38.9 35.5 87 10.0 W | 277 17.8 W | 276 40.4 38.8
5/4/26 - 0340 39.2 35.7 87 7.7 WNW | 283 14.9 WSW | 255 40.4 39.0
5/4/26 - 0330 39.4 35.9 87 7.6 W | 274 15.8 WNW | 285 40.4 39.0
Max 47.1 40.8 100 15.7 - 28.1 - 47.6 39.0
Avg 41.0 37.6 89 10.2 - 17.8 - - -
Min 37.9 34.7 66 2.7 - 6.9 - 38.6 37.9